Main page
METAR-TAF:

METAR-TAF

Airports :

Taylorville Municipal Airport

Taylorville, Illinois, United States

latitude: 39-32-03N, longitude: 089-19-40W, elevation: 623 ft

Current weather observation

The report was made 28 minutes ago, at 03:15 UTC
Wind 5 mph from the Southwest
Temperature 75°F
Humidity 57%
Pressure 29.96 in. Hg
Visibility: 10 miles
Clear sky

METAR: KTAZ 030315Z AUTO 23004KT 10SM CLR 24/15 A2996 RMK AO2 T02370152

Time: 22:43 (03:43 UTC)


TAF: missing

Weather observations and forecasts of more than 4000 airports (METAR and TAF reports).

The available stations are represented by yellow and red dots on the map.

Hover mouse over dot to see the name of the station.

Then click to see weather observations and forecasts.

To change the map : click on the green buttons with a black cross to zoom in, on the green button with a dash to zoom out, or on the green arrows for adjacent maps.


METAR-TAF: